[sarex] 2 Line ISS Keps 10-4

Dave Larsen PhD doc at volcano.net
Tue Oct 3 19:28:09 PDT 2006


ISS
1 25544U 98067A   06276.97028935  .00020243  00000-0  12773-3 0  7930
2 25544 051.6374 347.0703 0012850 057.2301 306.7786 15.76531553450328


More information about the SAREX mailing list